Home   Weather   Brighton   Past weeks

Flag for United Kingdom Past Weather in Brighton, England, United Kingdom — Yesterday and Last 2 Weeks

Now
57 °F

Scattered showers. Passing clouds.


Feels Like: 54 °F
Forecast: 46 / 61 °F
Wind: 15 mph from West

Location: Shoreham Airport

Current Time: Oct 1, 2016 at 6:24:26 PM

Latest Report: Oct 1, 2016 at 5:50 PM


Visibility: N/A

Pressure: 29.68 "Hg

Humidity: 72%

Dew Point: 48 °F

Location of BrightonLocation

Past Weather in Brighton — Graph

°F

Brighton Temperature Yesterday

Maximum temperature yesterday: 64 °F (at 11:20 AM)
Minimum temperature yesterday: 52 °F (at 7:50 AM)
Average temperature yesterday: 61 °F

High & Low Weather Summary for the Past Weeks

 TemperatureHumidityPressure
High70 °F (Sep 18, 1:50 PM)100% (Sep 19, 7:50 PM)30.30 "Hg (Sep 19, 7:50 PM)
Low46 °F (Sep 23, 7:50 AM)52% (Sep 23, 2:20 PM)29.68 "Hg (Oct 1, 8:50 AM)
Average63 °F77%30.08 "Hg
* Reported Sep 16 5:20 PM — Oct 1 5:20 PM, Brighton, Weather by CustomWeather, © 2016

Note: Actual official high and low records may vary slightly from our data, if they occured in-between our weather recording intervals... More about our weather records

Advertising

Brighton Weather History for the Previous 24 Hours

Scroll right to see more
 ConditionsComfort  
Time TempWeatherWind HumidityBarometerVisibility
5:20 PM
Sat, Oct 1
59 °FScattered showers. Scattered clouds.20 mph63%29.68 "HgN/A
4:50 PM59 °FScattered showers. Scattered clouds.20 mph68%29.68 "HgN/A
4:20 PM61 °FScattered showers. Scattered clouds.17 mph63%29.68 "HgN/A
3:50 PM61 °FScattered clouds.21 mph68%29.68 "HgN/A
3:20 PM61 °FScattered clouds.18 mph63%29.68 "HgN/A
2:50 PM57 °FRain showers. Scattered clouds.14 mph77%29.68 "HgN/A
2:20 PM61 °FScattered clouds.13 mph72%29.68 "HgN/A
1:50 PM61 °FScattered clouds.12 mph77%29.68 "HgN/A
1:20 PM59 °FScattered clouds.5 mph88%29.68 "HgN/A
12:50 PM57 °FScattered clouds.6 mph88%29.68 "HgN/A
12:20 PM55 °FSprinkles. Partly sunny.13 mph88%29.71 "Hg4 mi
11:50 AM55 °FSprinkles. Partly sunny.8 mph88%29.71 "Hg4 mi
11:20 AM54 °FSprinkles. Partly sunny.3 mph94%29.71 "Hg5 mi
10:50 AM54 °FSprinkles. Scattered clouds.8 mph94%29.71 "Hg5 mi
10:20 AM54 °FSprinkles. Scattered clouds.5 mph88%29.71 "HgN/A
9:50 AM57 °FSprinkles. Scattered clouds.9 mph77%29.71 "Hg5 mi
9:20 AM57 °FScattered showers. Scattered clouds.13 mph77%29.68 "Hg5 mi
8:50 AM57 °FScattered showers. Scattered clouds.8 mph77%29.68 "HgN/A
7:50 PM
Fri, Sep 30
59 °FPassing clouds.13 mph77%29.86 "HgN/A
7:20 PM59 °FScattered showers. Passing clouds.12 mph77%29.86 "HgN/A
6:50 PM59 °FPassing clouds.13 mph77%29.86 "HgN/A
6:20 PM61 °FScattered showers. Scattered clouds.14 mph72%29.86 "HgN/A
Weather by CustomWeather, © 2016

See weather overviewHow to use our weather pages